Tracking 22459 objects as of 3-Mar-2021
HD Live streaming from Space Station
objects crossing your sky now

COSMOS 252 DEB

Track COSMOS 252 DEB now!
10-day predictions


NORAD ID: 18490
Int'l Code: 1968-097EN
Perigee: 488.2 km
Apogee: 1,293.9 km
Inclination: 62.7 °
Period: 102.6 minutes
Semi major axis: 7262 km
RCS: 0.002 m2 (small)
Launch date: November 1, 1968
Source: Commonwealth of Independent States (former USSR) (CIS)
Launch site: TYURATAM MISSILE AND SPACE COMPLEX (TTMTR)

Note: This is SATELLITE DEBRIS
aabbcc
Your satellite tracking list
Your tracking list is empty




NASA's NSSDC Master Catalog

Two Line Element Set (TLE):
1 18490U 68097EN  21060.88639222  .00000553  00000-0  11552-3 0  9991
2 18490  62.7294 134.1039 0554748  44.3790 320.0355 14.02861932439016
Source of the keplerian elements: AFSPC